Wetterdaten: Dienstag, 13.02.2018
Datum Zeit Temp. Auen Feucht Auen Luftdruck Regen Richtung Richtung Windben
13.02.2018 00:00 -1,4 C 93 % 1019,9 hPa 0,0 mm W 264 11,3 km/h (2 Bft)
13.02.2018 00:05 -1,4 C 93 % 1019,8 hPa 0,0 mm W-SW 256 11,3 km/h (2 Bft)
13.02.2018 00:10 -1,4 C 93 % 1019,8 hPa 0,0 mm W-NW 284 8,0 km/h (2 Bft)
13.02.2018 00:15 -1,5 C 93 % 1019,9 hPa 0,0 mm W 272 6,4 km/h (2 Bft)
13.02.2018 00:20 -1,5 C 93 % 1019,8 hPa 0,0 mm W 265 8,0 km/h (2 Bft)
13.02.2018 00:25 -1,5 C 93 % 1019,9 hPa 0,0 mm W 265 6,4 km/h (2 Bft)
13.02.2018 00:30 -1,6 C 93 % 1019,8 hPa 0,0 mm W 261 6,4 km/h (2 Bft)
13.02.2018 00:35 -1,6 C 94 % 1019,8 hPa 0,0 mm W 261 4,8 km/h (1 Bft)
13.02.2018 00:40 -1,7 C 94 % 1019,9 hPa 0,0 mm W 261 4,8 km/h (1 Bft)
13.02.2018 00:45 -1,7 C 94 % 1019,9 hPa 0,0 mm W 261 4,8 km/h (1 Bft)
13.02.2018 00:50 -1,7 C 93 % 1019,9 hPa 0,0 mm W 261 3,2 km/h (1 Bft)
13.02.2018 00:55 -1,7 C 93 % 1019,9 hPa 0,0 mm W 261 3,2 km/h (1 Bft)
13.02.2018 01:00 -1,7 C 93 % 1019,9 hPa 0,0 mm W 261 3,2 km/h (1 Bft)
13.02.2018 01:05 -1,7 C 93 % 1019,9 hPa 0,0 mm W 261 3,2 km/h (1 Bft)
13.02.2018 01:10 -1,8 C 93 % 1019,9 hPa 0,0 mm W 261 4,8 km/h (1 Bft)
13.02.2018 01:15 -1,8 C 94 % 1020,0 hPa 0,0 mm W 261 3,2 km/h (1 Bft)
13.02.2018 01:20 -1,8 C 94 % 1020,0 hPa 0,0 mm W 261 1,6 km/h (1 Bft)
13.02.2018 01:25 -1,9 C 94 % 1020,0 hPa 0,0 mm W 261 1,6 km/h (1 Bft)
13.02.2018 01:30 -1,9 C 94 % 1019,9 hPa 0,0 mm W 261 0,0 km/h (0 Bft)
13.02.2018 01:35 -1,9 C 94 % 1019,9 hPa 0,0 mm W 261 0,0 km/h (0 Bft)
13.02.2018 01:40 -1,9 C 94 % 1019,9 hPa 0,0 mm W 261 1,6 km/h (1 Bft)
13.02.2018 01:45 -1,9 C 94 % 1019,9 hPa 0,0 mm W 261 1,6 km/h (1 Bft)
13.02.2018 01:50 -1,9 C 94 % 1020,0 hPa 0,0 mm W 261 0,0 km/h (0 Bft)
13.02.2018 01:55 -1,9 C 94 % 1020,0 hPa 0,0 mm W 261 0,0 km/h (0 Bft)
13.02.2018 02:00 -2,0 C 94 % 1020,0 hPa 0,0 mm W 261 4,8 km/h (1 Bft)
13.02.2018 02:05 -2,0 C 94 % 1019,9 hPa 0,0 mm W 261 4,8 km/h (1 Bft)
13.02.2018 02:10 -2,0 C 94 % 1019,9 hPa 0,0 mm W 261 4,8 km/h (1 Bft)
13.02.2018 02:15 -2,0 C 94 % 1019,9 hPa 0,0 mm W 261 4,8 km/h (1 Bft)
13.02.2018 02:20 -2,1 C 94 % 1019,9 hPa 0,0 mm W 261 3,2 km/h (1 Bft)
13.02.2018 02:25 -2,2 C 94 % 1019,9 hPa 0,0 mm W 261 3,2 km/h (1 Bft)
13.02.2018 02:30 -2,2 C 94 % 1019,9 hPa 0,0 mm W 261 3,2 km/h (1 Bft)
13.02.2018 02:35 -2,3 C 93 % 1019,8 hPa 0,0 mm W 261 0,0 km/h (0 Bft)
13.02.2018 02:40 -2,5 C 93 % 1019,8 hPa 0,0 mm W 261 0,0 km/h (0 Bft)
13.02.2018 02:45 -2,6 C 94 % 1019,9 hPa 0,0 mm W 261 0,0 km/h (0 Bft)
13.02.2018 02:50 -2,6 C 94 % 1019,9 hPa 0,0 mm W 261 0,0 km/h (0 Bft)
13.02.2018 02:55 -2,6 C 94 % 1019,9 hPa 0,0 mm W 261 0,0 km/h (0 Bft)
13.02.2018 03:00 -2,7 C 93 % 1019,9 hPa 0,0 mm W 261 1,6 km/h (1 Bft)
13.02.2018 03:05 -2,6 C 94 % 1019,9 hPa 0,0 mm W 261 1,6 km/h (1 Bft)
13.02.2018 03:10 -2,6 C 94 % 1019,8 hPa 0,0 mm W 261 1,6 km/h (1 Bft)
13.02.2018 03:15 -2,6 C 94 % 1019,8 hPa 0,0 mm W 261 3,2 km/h (1 Bft)
13.02.2018 03:20 -2,6 C 94 % 1019,8 hPa 0,0 mm W 261 0,0 km/h (0 Bft)
13.02.2018 03:25 -2,6 C 94 % 1019,8 hPa 0,0 mm W 261 0,0 km/h (0 Bft)
13.02.2018 03:30 -2,5 C 94 % 1019,8 hPa 0,0 mm W 261 0,0 km/h (0 Bft)
13.02.2018 03:35 -2,5 C 94 % 1019,9 hPa 0,0 mm W 261 0,0 km/h (0 Bft)
13.02.2018 03:40 -2,4 C 94 % 1019,8 hPa 0,0 mm W 261 0,0 km/h (0 Bft)
13.02.2018 03:45 -2,4 C 94 % 1019,8 hPa 0,0 mm W 261 0,0 km/h (0 Bft)
13.02.2018 03:50 -2,4 C 94 % 1019,7 hPa 0,0 mm W 261 0,0 km/h (0 Bft)
13.02.2018 03:55 -2,3 C 94 % 1019,7 hPa 0,0 mm W 261 0,0 km/h (0 Bft)
13.02.2018 04:00 -2,3 C 94 % 1019,6 hPa 0,0 mm W 261 3,2 km/h (1 Bft)
13.02.2018 04:05 -2,2 C 94 % 1019,6 hPa 0,0 mm W 261 4,8 km/h (1 Bft)
13.02.2018 04:10 -2,3 C 94 % 1019,6 hPa 0,0 mm W 261 3,2 km/h (1 Bft)
13.02.2018 04:15 -2,3 C 94 % 1019,5 hPa 0,0 mm W 261 1,6 km/h (1 Bft)
13.02.2018 04:20 -2,3 C 94 % 1019,5 hPa 0,0 mm W 261 0,0 km/h (0 Bft)
13.02.2018 04:25 -2,4 C 94 % 1019,6 hPa 0,0 mm W 261 0,0 km/h (0 Bft)
13.02.2018 04:30 -2,4 C 94 % 1019,6 hPa 0,0 mm W 261 0,0 km/h (0 Bft)
13.02.2018 04:35 -2,4 C 94 % 1019,6 hPa 0,0 mm W 261 0,0 km/h (0 Bft)
13.02.2018 04:40 -2,4 C 94 % 1019,6 hPa 0,0 mm W 261 0,0 km/h (0 Bft)
13.02.2018 04:45 -2,4 C 94 % 1019,6 hPa 0,0 mm W 261 0,0 km/h (0 Bft)
13.02.2018 04:50 -2,5 C 94 % 1019,6 hPa 0,0 mm W 261 1,6 km/h (1 Bft)
13.02.2018 04:55 -2,5 C 94 % 1019,6 hPa 0,0 mm W 261 1,6 km/h (1 Bft)
13.02.2018 05:00 -2,5 C 94 % 1019,7 hPa 0,0 mm W 261 1,6 km/h (1 Bft)
13.02.2018 05:05 -2,4 C 94 % 1019,6 hPa 0,0 mm W 261 3,2 km/h (1 Bft)
13.02.2018 05:10 -2,4 C 94 % 1019,6 hPa 0,0 mm W 261 3,2 km/h (1 Bft)
13.02.2018 05:15 -2,4 C 94 % 1019,6 hPa 0,0 mm W 261 3,2 km/h (1 Bft)
13.02.2018 05:20 -2,4 C 94 % 1019,5 hPa 0,0 mm W 261 4,8 km/h (1 Bft)
13.02.2018 05:25 -2,4 C 94 % 1019,4 hPa 0,0 mm W 261 3,2 km/h (1 Bft)
13.02.2018 05:30 -2,4 C 94 % 1019,5 hPa 0,0 mm W 261 3,2 km/h (1 Bft)
13.02.2018 05:35 -2,4 C 94 % 1019,4 hPa 0,0 mm W 261 1,6 km/h (1 Bft)
13.02.2018 05:40 -2,4 C 94 % 1019,4 hPa 0,0 mm W 261 3,2 km/h (1 Bft)
13.02.2018 05:45 -2,4 C 94 % 1019,4 hPa 0,0 mm W 261 4,8 km/h (1 Bft)
13.02.2018 05:50 -2,4 C 94 % 1019,5 hPa 0,0 mm W 261 3,2 km/h (1 Bft)
13.02.2018 05:55 -2,4 C 94 % 1019,4 hPa 0,0 mm W 261 3,2 km/h (1 Bft)
13.02.2018 06:00 -2,3 C 94 % 1019,4 hPa 0,0 mm W 261 4,8 km/h (1 Bft)
13.02.2018 06:05 -2,3 C 94 % 1019,4 hPa 0,0 mm W 261 6,4 km/h (2 Bft)
13.02.2018 06:10 -2,4 C 94 % 1019,4 hPa 0,0 mm W 261 3,2 km/h (1 Bft)
13.02.2018 06:15 -2,3 C 94 % 1019,4 hPa 0,0 mm W 261 4,8 km/h (1 Bft)
13.02.2018 06:20 -2,4 C 94 % 1019,4 hPa 0,0 mm W 261 1,6 km/h (1 Bft)
13.02.2018 06:25 -2,4 C 94 % 1019,4 hPa 0,0 mm W 261 0,0 km/h (0 Bft)
13.02.2018 06:30 -2,5 C 94 % 1019,3 hPa 0,0 mm W 261 0,0 km/h (0 Bft)
13.02.2018 06:35 -2,6 C 94 % 1019,4 hPa 0,0 mm W 261 1,6 km/h (1 Bft)
13.02.2018 06:40 -2,7 C 94 % 1019,4 hPa 0,0 mm W 261 3,2 km/h (1 Bft)
13.02.2018 06:45 -2,8 C 94 % 1019,4 hPa 0,0 mm W 261 3,2 km/h (1 Bft)
13.02.2018 06:50 -3,0 C 94 % 1019,5 hPa 0,0 mm W 261 0,0 km/h (0 Bft)
13.02.2018 06:55 -3,1 C 94 % 1019,5 hPa 0,0 mm W 261 0,0 km/h (0 Bft)
13.02.2018 07:00 -3,2 C 94 % 1019,5 hPa 0,0 mm W 261 0,0 km/h (0 Bft)
13.02.2018 07:05 -3,2 C 94 % 1019,4 hPa 0,0 mm W 261 0,0 km/h (0 Bft)
13.02.2018 07:10 -3,3 C 94 % 1019,6 hPa 0,0 mm W 261 0,0 km/h (0 Bft)
13.02.2018 07:15 -3,3 C 94 % 1019,6 hPa 0,0 mm W 261 0,0 km/h (0 Bft)
13.02.2018 07:20 -3,4 C 94 % 1019,6 hPa 0,0 mm W 261 0,0 km/h (0 Bft)
13.02.2018 07:25 -3,4 C 94 % 1019,5 hPa 0,0 mm W 261 1,6 km/h (1 Bft)
13.02.2018 07:30 -3,5 C 94 % 1019,6 hPa 0,0 mm W 261 0,0 km/h (0 Bft)
13.02.2018 07:35 -3,6 C 94 % 1019,5 hPa 0,0 mm W 261 0,0 km/h (0 Bft)
13.02.2018 07:40 -3,6 C 94 % 1019,5 hPa 0,0 mm W 261 0,0 km/h (0 Bft)
13.02.2018 07:45 -3,6 C 94 % 1019,6 hPa 0,0 mm W 261 0,0 km/h (0 Bft)
13.02.2018 07:50 -3,6 C 94 % 1019,6 hPa 0,0 mm W 261 0,0 km/h (0 Bft)
13.02.2018 07:55 -3,7 C 94 % 1019,7 hPa 0,0 mm W 261 0,0 km/h (0 Bft)
13.02.2018 08:00 -3,7 C 94 % 1019,7 hPa 0,0 mm W 261 0,0 km/h (0 Bft)
13.02.2018 08:05 -3,6 C 94 % 1019,6 hPa 0,0 mm W 261 0,0 km/h (0 Bft)
13.02.2018 08:10 -3,6 C 94 % 1019,7 hPa 0,0 mm W 261 0,0 km/h (0 Bft)
13.02.2018 08:15 -3,6 C 94 % 1019,7 hPa 0,0 mm W 261 0,0 km/h (0 Bft)
13.02.2018 08:20 -3,5 C 94 % 1019,8 hPa 0,0 mm W 261 0,0 km/h (0 Bft)
13.02.2018 08:25 -3,4 C 94 % 1019,8 hPa 0,0 mm W 261 1,6 km/h (1 Bft)
13.02.2018 08:30 -3,3 C 94 % 1019,7 hPa 0,0 mm W 261 0,0 km/h (0 Bft)
13.02.2018 08:35 -3,2 C 94 % 1019,7 hPa 0,0 mm W 261 0,0 km/h (0 Bft)
13.02.2018 08:40 -3,2 C 94 % 1019,7 hPa 0,0 mm W 261 0,0 km/h (0 Bft)
13.02.2018 08:45 -3,1 C 95 % 1019,6 hPa 0,0 mm W 261 1,6 km/h (1 Bft)
13.02.2018 08:50 -2,9 C 94 % 1019,7 hPa 0,0 mm W 261 0,0 km/h (0 Bft)
13.02.2018 08:55 -2,8 C 95 % 1019,7 hPa 0,0 mm W 261 0,0 km/h (0 Bft)
13.02.2018 09:00 -1,9 C 95 % 1019,7 hPa 0,0 mm W 261 0,0 km/h (0 Bft)
13.02.2018 09:05 -2,3 C 94 % 1019,7 hPa 0,0 mm W 261 0,0 km/h (0 Bft)
13.02.2018 09:10 -2,7 C 93 % 1019,6 hPa 0,0 mm W 261 0,0 km/h (0 Bft)
13.02.2018 09:15 -2,4 C 94 % 1019,6 hPa 0,0 mm W 261 0,0 km/h (0 Bft)
13.02.2018 09:20 -2,2 C 94 % 1019,6 hPa 0,0 mm W 261 0,0 km/h (0 Bft)
13.02.2018 09:25 -2,0 C 94 % 1019,7 hPa 0,0 mm W 261 0,0 km/h (0 Bft)
13.02.2018 09:30 -2,0 C 94 % 1019,6 hPa 0,0 mm W 261 0,0 km/h (0 Bft)
13.02.2018 09:35 -1,9 C 94 % 1019,6 hPa 0,0 mm W 261 0,0 km/h (0 Bft)
13.02.2018 09:40 -1,9 C 93 % 1019,6 hPa 0,0 mm W 261 0,0 km/h (0 Bft)
13.02.2018 09:45 -1,8 C 93 % 1019,6 hPa 0,0 mm W 261 0,0 km/h (0 Bft)
13.02.2018 09:50 -1,9 C 93 % 1019,6 hPa 0,0 mm W 261 0,0 km/h (0 Bft)
13.02.2018 09:55 -2,4 C 92 % 1019,5 hPa 0,0 mm W 261 1,6 km/h (1 Bft)
13.02.2018 10:00 -2,6 C 93 % 1019,5 hPa 0,0 mm W 261 0,0 km/h (0 Bft)
13.02.2018 10:05 -2,7 C 93 % 1019,4 hPa 0,0 mm W 261 0,0 km/h (0 Bft)
13.02.2018 10:10 -2,4 C 94 % 1019,4 hPa 0,0 mm W 261 0,0 km/h (0 Bft)
13.02.2018 10:15 -1,9 C 94 % 1019,3 hPa 0,0 mm W 261 1,6 km/h (1 Bft)
13.02.2018 10:20 -1,5 C 93 % 1019,2 hPa 0,0 mm W 261 3,2 km/h (1 Bft)
13.02.2018 10:25 -0,6 C 93 % 1019,2 hPa 0,0 mm W 261 4,8 km/h (1 Bft)
13.02.2018 10:30 -0,1 C 91 % 1019,2 hPa 0,0 mm W 261 6,4 km/h (2 Bft)
13.02.2018 10:35 0,3 C 89 % 1019,1 hPa 0,0 mm W 261 4,8 km/h (1 Bft)
13.02.2018 10:40 1,1 C 88 % 1019,2 hPa 0,0 mm W 261 6,4 km/h (2 Bft)
13.02.2018 10:45 1,4 C 86 % 1019,2 hPa 0,0 mm W 266 8,0 km/h (2 Bft)
13.02.2018 10:50 0,8 C 84 % 1019,1 hPa 0,0 mm W 263 8,0 km/h (2 Bft)
13.02.2018 10:55 0,7 C 85 % 1019,0 hPa 0,0 mm W 265 8,0 km/h (2 Bft)
13.02.2018 11:00 1,1 C 86 % 1019,0 hPa 0,0 mm W 266 8,0 km/h (2 Bft)
13.02.2018 11:05 1,1 C 82 % 1019,0 hPa 0,0 mm W 275 9,7 km/h (2 Bft)
13.02.2018 11:10 0,6 C 82 % 1019,0 hPa 0,0 mm W 275 6,4 km/h (2 Bft)
13.02.2018 11:15 0,3 C 82 % 1019,0 hPa 0,0 mm W 275 6,4 km/h (2 Bft)
13.02.2018 11:20 0,3 C 84 % 1018,8 hPa 0,0 mm W 275 6,4 km/h (2 Bft)
13.02.2018 11:25 0,5 C 83 % 1018,8 hPa 0,0 mm W 263 6,4 km/h (2 Bft)
13.02.2018 11:30 0,6 C 84 % 1018,7 hPa 0,0 mm W 263 4,8 km/h (1 Bft)
13.02.2018 11:35 0,5 C 84 % 1018,7 hPa 0,0 mm W 259 8,0 km/h (2 Bft)
13.02.2018 11:40 0,9 C 84 % 1018,6 hPa 0,0 mm W 273 6,4 km/h (2 Bft)
13.02.2018 11:45 1,1 C 83 % 1018,6 hPa 0,0 mm W 273 6,4 km/h (2 Bft)
13.02.2018 11:50 1,4 C 84 % 1018,5 hPa 0,0 mm W 273 6,4 km/h (2 Bft)
13.02.2018 11:55 1,5 C 82 % 1018,4 hPa 0,0 mm W 273 6,4 km/h (2 Bft)
13.02.2018 12:00 1,5 C 81 % 1018,2 hPa 0,0 mm W 273 6,4 km/h (2 Bft)
13.02.2018 12:05 1,5 C 82 % 1018,2 hPa 0,0 mm W 273 4,8 km/h (1 Bft)
13.02.2018 12:10 1,3 C 83 % 1018,1 hPa 0,0 mm W 273 4,8 km/h (1 Bft)
13.02.2018 12:15 1,4 C 80 % 1018,0 hPa 0,0 mm W 273 1,6 km/h (1 Bft)
13.02.2018 12:20 1,9 C 80 % 1017,9 hPa 0,0 mm W 273 3,2 km/h (1 Bft)
13.02.2018 12:25 0,8 C 78 % 1017,8 hPa 0,0 mm W 273 1,6 km/h (1 Bft)
13.02.2018 12:30 1,2 C 81 % 1017,8 hPa 0,0 mm W 273 1,6 km/h (1 Bft)
13.02.2018 12:35 1,4 C 79 % 1017,6 hPa 0,0 mm W 273 4,8 km/h (1 Bft)
13.02.2018 12:40 1,7 C 78 % 1017,5 hPa 0,0 mm W 273 4,8 km/h (1 Bft)
13.02.2018 12:45 1,3 C 77 % 1017,4 hPa 0,0 mm W 273 4,8 km/h (1 Bft)
13.02.2018 12:50 1,8 C 75 % 1017,3 hPa 0,0 mm W 273 4,8 km/h (1 Bft)
13.02.2018 12:55 0,2 C 75 % 1017,2 hPa 0,0 mm S 170 4,8 km/h (1 Bft)
13.02.2018 13:00 -0,3 C 78 % 1017,1 hPa 0,0 mm S 170 3,2 km/h (1 Bft)
13.02.2018 13:05 -0,4 C 77 % 1017,1 hPa 0,0 mm S 170 3,2 km/h (1 Bft)
13.02.2018 13:10 -0,4 C 77 % 1017,0 hPa 0,0 mm S 170 3,2 km/h (1 Bft)
13.02.2018 13:15 -0,2 C 78 % 1016,9 hPa 0,0 mm S 170 0,0 km/h (0 Bft)
13.02.2018 13:20 -0,1 C 78 % 1016,8 hPa 0,0 mm S 170 4,8 km/h (1 Bft)
13.02.2018 13:25 -0,3 C 79 % 1016,8 hPa 0,0 mm S 170 6,4 km/h (2 Bft)
13.02.2018 13:30 -0,4 C 79 % 1016,8 hPa 0,0 mm S 170 4,8 km/h (1 Bft)
13.02.2018 13:35 -0,4 C 80 % 1016,7 hPa 0,0 mm S 170 3,2 km/h (1 Bft)
13.02.2018 13:40 -0,1 C 80 % 1016,6 hPa 0,0 mm S 170 3,2 km/h (1 Bft)
13.02.2018 13:45 0,0 C 78 % 1016,5 hPa 0,0 mm S 170 4,8 km/h (1 Bft)
13.02.2018 13:50 -0,2 C 78 % 1016,4 hPa 0,0 mm SO 136 4,8 km/h (1 Bft)
13.02.2018 13:55 -0,3 C 78 % 1016,3 hPa 0,0 mm SO 136 6,4 km/h (2 Bft)
13.02.2018 14:00 -0,3 C 78 % 1016,3 hPa 0,0 mm SO 136 4,8 km/h (1 Bft)
13.02.2018 14:05 -0,6 C 77 % 1016,3 hPa 0,0 mm SO 136 3,2 km/h (1 Bft)
13.02.2018 14:10 -0,8 C 78 % 1016,2 hPa 0,0 mm SO 136 4,8 km/h (1 Bft)
13.02.2018 14:15 -0,8 C 80 % 1016,2 hPa 0,0 mm SO 136 3,2 km/h (1 Bft)
13.02.2018 14:20 -0,6 C 81 % 1016,1 hPa 0,0 mm SO 136 3,2 km/h (1 Bft)
13.02.2018 14:25 -0,3 C 81 % 1016,1 hPa 0,0 mm SO 136 6,4 km/h (2 Bft)
13.02.2018 14:30 -0,2 C 80 % 1016,1 hPa 0,0 mm SO 132 6,4 km/h (2 Bft)
13.02.2018 14:35 -0,3 C 80 % 1016,1 hPa 0,0 mm O-SO 111 12,9 km/h (3 Bft)
13.02.2018 14:40 -0,4 C 80 % 1016,0 hPa 0,0 mm O 101 14,5 km/h (3 Bft)
13.02.2018 14:45 -0,5 C 80 % 1015,9 hPa 0,0 mm O-SO 107 11,3 km/h (2 Bft)
13.02.2018 14:50 -0,5 C 80 % 1015,9 hPa 0,0 mm SO 126 9,7 km/h (2 Bft)
13.02.2018 14:55 -0,5 C 80 % 1015,9 hPa 0,0 mm O-SO 114 8,0 km/h (2 Bft)
13.02.2018 15:00 -0,5 C 80 % 1015,8 hPa 0,0 mm O-SO 113 8,0 km/h (2 Bft)
13.02.2018 15:05 -0,5 C 80 % 1015,7 hPa 0,0 mm SO 128 8,0 km/h (2 Bft)
13.02.2018 15:10 -0,5 C 80 % 1015,7 hPa 0,0 mm SO 128 6,4 km/h (2 Bft)
13.02.2018 15:15 -0,6 C 80 % 1015,7 hPa 0,0 mm SO 127 6,4 km/h (2 Bft)
13.02.2018 15:20 -0,6 C 79 % 1015,6 hPa 0,0 mm O 98 9,7 km/h (2 Bft)
13.02.2018 15:25 -0,6 C 80 % 1015,6 hPa 0,0 mm O-SO 103 8,0 km/h (2 Bft)
13.02.2018 15:30 -0,6 C 80 % 1015,6 hPa 0,0 mm O-SO 103 4,8 km/h (1 Bft)
13.02.2018 15:35 -0,6 C 80 % 1015,5 hPa 0,0 mm O-SO 103 6,4 km/h (2 Bft)
13.02.2018 15:40 -0,7 C 81 % 1015,4 hPa 0,0 mm O-SO 103 6,4 km/h (2 Bft)
13.02.2018 15:45 -0,7 C 82 % 1015,5 hPa 0,0 mm O-SO 103 4,8 km/h (1 Bft)
13.02.2018 15:50 -0,8 C 82 % 1015,4 hPa 0,0 mm O-SO 103 4,8 km/h (1 Bft)
13.02.2018 15:55 -0,9 C 81 % 1015,3 hPa 0,0 mm O-SO 103 6,4 km/h (2 Bft)
13.02.2018 16:00 -1,1 C 82 % 1015,2 hPa 0,0 mm O-SO 103 6,4 km/h (2 Bft)
13.02.2018 16:05 -1,2 C 83 % 1015,2 hPa 0,0 mm O-SO 103 6,4 km/h (2 Bft)
13.02.2018 16:10 -1,3 C 83 % 1015,3 hPa 0,0 mm O-SO 103 4,8 km/h (1 Bft)
13.02.2018 16:15 -1,6 C 83 % 1015,2 hPa 0,0 mm O-SO 103 3,2 km/h (1 Bft)
13.02.2018 16:20 -1,7 C 83 % 1015,3 hPa 0,0 mm O-SO 103 1,6 km/h (1 Bft)
13.02.2018 16:25 -1,7 C 83 % 1015,2 hPa 0,0 mm O-SO 103 0,0 km/h (0 Bft)
13.02.2018 16:30 -1,7 C 84 % 1015,2 hPa 0,0 mm O-SO 103 3,2 km/h (1 Bft)
13.02.2018 16:35 -1,8 C 84 % 1015,2 hPa 0,0 mm O-SO 103 3,2 km/h (1 Bft)
13.02.2018 16:40 -2,1 C 85 % 1015,2 hPa 0,0 mm O-SO 103 3,2 km/h (1 Bft)
13.02.2018 16:45 -2,2 C 85 % 1015,2 hPa 0,0 mm O-SO 103 1,6 km/h (1 Bft)
13.02.2018 16:50 -2,2 C 85 % 1015,2 hPa 0,0 mm O-SO 103 0,0 km/h (0 Bft)
13.02.2018 16:55 -2,2 C 85 % 1015,1 hPa 0,0 mm O-SO 103 3,2 km/h (1 Bft)
13.02.2018 17:00 -2,2 C 86 % 1015,1 hPa 0,0 mm O-SO 103 3,2 km/h (1 Bft)
13.02.2018 17:05 -2,3 C 86 % 1015,0 hPa 0,0 mm O-SO 103 3,2 km/h (1 Bft)
13.02.2018 17:10 -2,4 C 87 % 1015,1 hPa 0,0 mm O-SO 103 4,8 km/h (1 Bft)
13.02.2018 17:15 -2,3 C 87 % 1015,1 hPa 0,0 mm O-SO 103 3,2 km/h (1 Bft)
13.02.2018 17:20 -2,3 C 87 % 1015,1 hPa 0,0 mm O-SO 103 3,2 km/h (1 Bft)
13.02.2018 17:25 -2,2 C 87 % 1015,1 hPa 0,0 mm O-SO 103 4,8 km/h (1 Bft)
13.02.2018 17:30 -3,3 C 85 % 1015,1 hPa 0,0 mm O-SO 103 3,2 km/h (1 Bft)
13.02.2018 17:35 -3,7 C 86 % 1015,1 hPa 0,0 mm O-SO 103 0,0 km/h (0 Bft)
13.02.2018 17:40 -3,7 C 88 % 1015,1 hPa 0,0 mm O-SO 103 0,0 km/h (0 Bft)
13.02.2018 17:45 -3,7 C 88 % 1015,1 hPa 0,0 mm O-SO 103 0,0 km/h (0 Bft)
13.02.2018 17:50 -4,1 C 87 % 1015,1 hPa 0,0 mm O-SO 103 0,0 km/h (0 Bft)
13.02.2018 17:55 -4,2 C 88 % 1015,1 hPa 0,0 mm O-SO 103 0,0 km/h (0 Bft)
13.02.2018 18:00 -4,0 C 89 % 1015,1 hPa 0,0 mm O-SO 103 0,0 km/h (0 Bft)
13.02.2018 18:05 -4,3 C 89 % 1015,1 hPa 0,0 mm O-SO 103 0,0 km/h (0 Bft)
13.02.2018 18:10 -4,8 C 89 % 1014,9 hPa 0,0 mm O-SO 103 0,0 km/h (0 Bft)
13.02.2018 18:15 -5,1 C 89 % 1015,0 hPa 0,0 mm O-SO 103 1,6 km/h (1 Bft)
13.02.2018 18:20 -4,9 C 90 % 1014,9 hPa 0,0 mm O-SO 103 1,6 km/h (1 Bft)
13.02.2018 18:25 -4,8 C 91 % 1014,9 hPa 0,0 mm O-SO 103 0,0 km/h (0 Bft)
13.02.2018 18:30 -4,8 C 91 % 1014,8 hPa 0,0 mm O-SO 103 0,0 km/h (0 Bft)
13.02.2018 18:35 -4,9 C 91 % 1014,8 hPa 0,0 mm O-SO 103 0,0 km/h (0 Bft)
13.02.2018 18:40 -5,0 C 91 % 1014,8 hPa 0,0 mm O-SO 103 0,0 km/h (0 Bft)
13.02.2018 18:45 -5,2 C 91 % 1014,8 hPa 0,0 mm O-SO 103 0,0 km/h (0 Bft)
13.02.2018 18:50 -4,9 C 92 % 1014,8 hPa 0,0 mm O-SO 103 0,0 km/h (0 Bft)
13.02.2018 18:55 -5,2 C 92 % 1014,7 hPa 0,0 mm O-SO 103 0,0 km/h (0 Bft)
13.02.2018 19:00 -5,5 C 92 % 1014,7 hPa 0,0 mm O-SO 103 0,0 km/h (0 Bft)
13.02.2018 19:05 -5,6 C 92 % 1014,7 hPa 0,0 mm O-SO 103 0,0 km/h (0 Bft)
13.02.2018 19:10 -5,6 C 93 % 1014,7 hPa 0,0 mm O-SO 103 0,0 km/h (0 Bft)
13.02.2018 19:15 -5,6 C 93 % 1014,8 hPa 0,0 mm O-SO 103 0,0 km/h (0 Bft)
13.02.2018 19:20 -5,3 C 93 % 1014,7 hPa 0,0 mm O-SO 103 0,0 km/h (0 Bft)
13.02.2018 19:25 -5,3 C 93 % 1014,8 hPa 0,0 mm O-SO 103 0,0 km/h (0 Bft)
13.02.2018 19:30 -5,4 C 93 % 1014,8 hPa 0,0 mm O-SO 103 0,0 km/h (0 Bft)
13.02.2018 19:35 -5,6 C 93 % 1014,8 hPa 0,0 mm O-SO 103 0,0 km/h (0 Bft)
13.02.2018 19:40 -5,6 C 93 % 1014,7 hPa 0,0 mm O-SO 103 0,0 km/h (0 Bft)
13.02.2018 19:45 -6,1 C 93 % 1014,7 hPa 0,0 mm O-SO 103 0,0 km/h (0 Bft)
13.02.2018 19:50 -5,8 C 94 % 1014,7 hPa 0,0 mm O-SO 103 0,0 km/h (0 Bft)
13.02.2018 19:55 -6,1 C 93 % 1014,7 hPa 0,0 mm O-SO 103 0,0 km/h (0 Bft)
13.02.2018 20:00 -6,1 C 93 % 1014,7 hPa 0,0 mm O-SO 103 0,0 km/h (0 Bft)
13.02.2018 20:05 -6,1 C 93 % 1014,9 hPa 0,0 mm O-SO 103 0,0 km/h (0 Bft)
13.02.2018 20:10 -6,4 C 93 % 1014,9 hPa 0,0 mm O-SO 103 0,0 km/h (0 Bft)
13.02.2018 20:15 -6,6 C 93 % 1015,0 hPa 0,0 mm O-SO 103 0,0 km/h (0 Bft)
13.02.2018 20:20 -6,9 C 93 % 1015,0 hPa 0,0 mm O-SO 103 0,0 km/h (0 Bft)
13.02.2018 20:25 -6,8 C 93 % 1015,0 hPa 0,0 mm O-SO 103 0,0 km/h (0 Bft)
13.02.2018 20:30 -7,2 C 93 % 1015,0 hPa 0,0 mm O-SO 103 0,0 km/h (0 Bft)
13.02.2018 20:35 -7,2 C 93 % 1015,0 hPa 0,0 mm O-SO 103 0,0 km/h (0 Bft)
13.02.2018 20:40 -7,4 C 93 % 1015,0 hPa 0,0 mm O-SO 103 0,0 km/h (0 Bft)
13.02.2018 20:45 -7,3 C 94 % 1014,9 hPa 0,0 mm O-SO 103 0,0 km/h (0 Bft)
13.02.2018 20:50 -7,0 C 94 % 1014,9 hPa 0,0 mm O-SO 103 0,0 km/h (0 Bft)
13.02.2018 20:55 -7,2 C 93 % 1014,9 hPa 0,0 mm O-SO 103 0,0 km/h (0 Bft)
13.02.2018 21:00 -7,1 C 94 % 1014,9 hPa 0,0 mm O-SO 103 0,0 km/h (0 Bft)
13.02.2018 21:05 -7,2 C 94 % 1014,9 hPa 0,0 mm O-SO 103 0,0 km/h (0 Bft)
13.02.2018 21:10 -7,5 C 93 % 1014,9 hPa 0,0 mm O-SO 103 0,0 km/h (0 Bft)
13.02.2018 21:15 -7,8 C 93 % 1014,9 hPa 0,0 mm O-SO 103 0,0 km/h (0 Bft)
13.02.2018 21:20 -7,8 C 93 % 1014,9 hPa 0,0 mm O-SO 103 0,0 km/h (0 Bft)
13.02.2018 21:25 -7,7 C 94 % 1014,8 hPa 0,0 mm O-SO 103 0,0 km/h (0 Bft)
13.02.2018 21:30 -7,4 C 94 % 1014,9 hPa 0,0 mm O-SO 103 0,0 km/h (0 Bft)
13.02.2018 21:35 -7,7 C 93 % 1014,8 hPa 0,0 mm O-SO 103 0,0 km/h (0 Bft)
13.02.2018 21:40 -8,1 C 93 % 1014,9 hPa 0,0 mm O-SO 103 0,0 km/h (0 Bft)
13.02.2018 21:45 -8,2 C 93 % 1014,8 hPa 0,0 mm O-SO 103 0,0 km/h (0 Bft)
13.02.2018 21:50 -8,3 C 93 % 1014,8 hPa 0,0 mm O-SO 103 1,6 km/h (1 Bft)
13.02.2018 21:55 -8,2 C 93 % 1014,8 hPa 0,0 mm O-SO 103 1,6 km/h (1 Bft)
13.02.2018 22:00 -7,9 C 94 % 1014,8 hPa 0,0 mm O-SO 103 1,6 km/h (1 Bft)
13.02.2018 22:05 -7,9 C 93 % 1014,9 hPa 0,0 mm O-SO 103 3,2 km/h (1 Bft)
13.02.2018 22:10 -8,2 C 93 % 1014,9 hPa 0,0 mm O-SO 103 1,6 km/h (1 Bft)
13.02.2018 22:15 -7,9 C 93 % 1014,9 hPa 0,0 mm O-SO 103 0,0 km/h (0 Bft)
13.02.2018 22:20 -8,1 C 93 % 1014,9 hPa 0,0 mm O-SO 103 3,2 km/h (1 Bft)
13.02.2018 22:25 -8,1 C 93 % 1014,9 hPa 0,0 mm O-SO 103 3,2 km/h (1 Bft)
13.02.2018 22:30 -8,3 C 93 % 1014,9 hPa 0,0 mm O-SO 103 3,2 km/h (1 Bft)
13.02.2018 22:35 -8,4 C 93 % 1014,9 hPa 0,0 mm O-SO 103 1,6 km/h (1 Bft)
13.02.2018 22:40 -8,7 C 93 % 1014,9 hPa 0,0 mm O-SO 103 0,0 km/h (0 Bft)
13.02.2018 22:45 -8,7 C 93 % 1014,9 hPa 0,0 mm O-SO 103 0,0 km/h (0 Bft)
13.02.2018 22:50 -8,7 C 93 % 1014,9 hPa 0,0 mm O-SO 103 0,0 km/h (0 Bft)
13.02.2018 22:55 -8,6 C 93 % 1014,8 hPa 0,0 mm O-SO 103 0,0 km/h (0 Bft)
13.02.2018 23:00 -8,6 C 93 % 1014,9 hPa 0,0 mm O-SO 103 0,0 km/h (0 Bft)
13.02.2018 23:05 -8,7 C 93 % 1014,9 hPa 0,0 mm O-SO 103 0,0 km/h (0 Bft)
13.02.2018 23:10 -8,6 C 93 % 1014,8 hPa 0,0 mm O-SO 103 0,0 km/h (0 Bft)
13.02.2018 23:15 -8,7 C 93 % 1014,8 hPa 0,0 mm O-SO 103 0,0 km/h (0 Bft)
13.02.2018 23:20 -8,7 C 93 % 1014,8 hPa 0,0 mm O-SO 103 3,2 km/h (1 Bft)
13.02.2018 23:25 -8,9 C 93 % 1014,8 hPa 0,0 mm O-SO 103 1,6 km/h (1 Bft)
13.02.2018 23:30 -9,2 C 93 % 1014,7 hPa 0,0 mm O-SO 103 0,0 km/h (0 Bft)
13.02.2018 23:35 -9,1 C 93 % 1014,7 hPa 0,0 mm O-SO 103 0,0 km/h (0 Bft)
13.02.2018 23:40 -8,9 C 93 % 1014,7 hPa 0,0 mm O-SO 103 0,0 km/h (0 Bft)
13.02.2018 23:45 -9,1 C 93 % 1014,7 hPa 0,0 mm O-SO 103 0,0 km/h (0 Bft)
13.02.2018 23:50 -9,0 C 93 % 1014,7 hPa 0,0 mm O-SO 103 0,0 km/h (0 Bft)
13.02.2018 23:55 -9,2 C 93 % 1014,7 hPa 0,0 mm O-SO 103 0,0 km/h (0 Bft)
_ Min-Zeit 23:30 12:50 18:55 - - - 01:30
Minimum _ -9,2 C 75 % 1014,7 hPa - - - 0,0 km/h (0 Bft)
_ Max-Zeit 12:50 08:45 01:15 00:00 - - 14:40
Maximum _ 2,0 C 95 % 1020,0 hPa 0,0 mm - - 14,5 km/h
O-SO (3 Bft)
Durchschnitt _ -3,0 C 90 % 1017,5 hPa #0,0 mm W - 2,5 km/h (1 Bft)